TimeCDT,TemperatureF,Dew PointF,Humidity,Sea Level PressureIn,VisibilityMPH,Wind Direction,Wind SpeedMPH,Gust SpeedMPH,PrecipitationIn,Events,Conditions,WindDirDegrees,DateUTC
12:53 AM,46.9,44.1,90,30.08,10.0,Calm,Calm,-,N/A,,Clear,0,2012-10-09 05:53:00
1:53 AM,46.9,44.1,90,30.09,10.0,Calm,Calm,-,N/A,,Clear,0,2012-10-09 06:53:00
2:53 AM,46.4,42.8,87,30.09,10.0,Calm,Calm,-,N/A,,Clear,0,2012-10-09 07:53:00
3:53 AM,45.0,43.0,93,30.08,10.0,Calm,Calm,-,N/A,,Clear,0,2012-10-09 08:53:00
4:53 AM,44.1,42.1,93,30.07,10.0,East,3.5,-,N/A,,Clear,90,2012-10-09 09:53:00
5:53 AM,43.0,41.0,93,30.06,10.0,East,3.5,-,N/A,,Clear,100,2012-10-09 10:53:00
6:53 AM,43.0,41.0,93,30.06,10.0,East,3.5,-,N/A,,Clear,90,2012-10-09 11:53:00
7:53 AM,45.0,43.0,93,30.07,10.0,ENE,5.8,-,N/A,,Clear,60,2012-10-09 12:53:00
8:53 AM,48.9,45.0,86,30.07,10.0,ENE,6.9,-,N/A,,Clear,70,2012-10-09 13:53:00
9:53 AM,54.0,46.0,75,30.06,10.0,East,5.8,-,N/A,,Clear,80,2012-10-09 14:53:00
10:53 AM,61.0,45.0,56,30.05,10.0,ESE,11.5,-,N/A,,Partly Cloudy,120,2012-10-09 15:53:00
11:53 AM,64.0,46.0,52,30.02,10.0,ESE,6.9,-,N/A,,Mostly Cloudy,120,2012-10-09 16:53:00
12:53 PM,68.0,48.0,49,29.98,10.0,SSW,9.2,18.4,N/A,,Mostly Cloudy,210,2012-10-09 17:53:00
1:53 PM,70.0,50.0,49,29.94,10.0,South,12.7,16.1,N/A,,Mostly Cloudy,170,2012-10-09 18:53:00
2:53 PM,70.0,51.1,51,29.90,10.0,SSE,9.2,-,N/A,,Overcast,150,2012-10-09 19:53:00
3:53 PM,68.0,52.0,56,29.90,10.0,SSE,10.4,-,N/A,,Overcast,160,2012-10-09 20:53:00
4:53 PM,68.0,53.1,59,29.92,10.0,SSW,8.1,-,N/A,,Overcast,200,2012-10-09 21:53:00
5:53 PM,66.9,54.0,63,29.94,10.0,SW,4.6,-,N/A,,Overcast,230,2012-10-09 22:53:00
6:15 PM,66.2,55.4,68,29.96,10.0,SW,11.5,-,N/A,,Overcast,230,2012-10-09 23:15:00
6:44 PM,66.2,55.4,68,29.97,10.0,SW,8.1,-,N/A,,Overcast,220,2012-10-09 23:44:00
6:53 PM,64.9,55.9,73,29.97,10.0,SW,5.8,-,N/A,,Overcast,220,2012-10-09 23:53:00
7:09 PM,64.4,55.4,73,29.97,10.0,SSW,6.9,-,N/A,,Overcast,200,2012-10-10 00:09:00
7:41 PM,62.6,57.2,82,29.98,10.0,South,5.8,-,N/A,,Overcast,190,2012-10-10 00:41:00
7:53 PM,63.0,57.0,81,29.98,10.0,South,4.6,-,N/A,,Overcast,170,2012-10-10 00:53:00
8:53 PM,63.0,57.0,81,30.01,10.0,Calm,Calm,-,N/A,,Overcast,0,2012-10-10 01:53:00
9:53 PM,62.1,57.0,84,30.03,10.0,Calm,Calm,-,N/A,,Overcast,0,2012-10-10 02:53:00
10:53 PM,61.0,57.0,87,30.04,10.0,Calm,Calm,-,N/A,,Partly Cloudy,0,2012-10-10 03:53:00
11:53 PM,57.9,55.9,93,30.06,6.0,Calm,Calm,-,N/A,,Clear,0,2012-10-10 04:53:00